TimeCST,TemperatureF,Dew PointF,Humidity,Sea Level PressureIn,VisibilityMPH,Wind Direction,Wind SpeedMPH,Gust SpeedMPH,PrecipitationIn,Events,Conditions,WindDirDegrees,DateUTC
12:18 AM,50.0,48.2,94,29.88,6.0,Calm,Calm,-,N/A,,Mostly Cloudy,0,2012-12-07 06:18:00
12:53 AM,55.0,53.1,93,29.86,5.0,Calm,Calm,-,0.00,,Light Drizzle,0,2012-12-07 06:53:00
1:17 AM,57.2,55.4,94,29.87,4.0,SSW,4.6,-,0.00,,Light Drizzle,200,2012-12-07 07:17:00
1:22 AM,57.2,55.4,94,29.87,0.5,SSW,4.6,-,0.00,,Overcast,200,2012-12-07 07:22:00
1:53 AM,57.9,57.0,97,29.86,0.5,SSW,5.8,-,0.00,,Overcast,210,2012-12-07 07:53:00
2:25 AM,57.2,57.2,100,29.87,0.2,SSW,6.9,-,N/A,Fog,Fog,200,2012-12-07 08:25:00
2:53 AM,59.0,59.0,100,29.86,0.2,South,6.9,-,N/A,,Overcast,190,2012-12-07 08:53:00
3:09 AM,59.0,59.0,100,29.86,0.2,South,5.8,-,N/A,Fog,Fog,190,2012-12-07 09:09:00
3:46 AM,59.0,59.0,100,29.86,0.2,Calm,Calm,-,N/A,Fog,Fog,0,2012-12-07 09:46:00
3:53 AM,59.0,59.0,100,29.85,0.2,SSW,3.5,-,N/A,Fog,Fog,200,2012-12-07 09:53:00
4:53 AM,60.1,59.0,96,29.84,0.2,Calm,Calm,-,N/A,Fog,Fog,0,2012-12-07 10:53:00
5:53 AM,60.1,60.1,100,29.85,0.5,Calm,Calm,-,N/A,Fog,Fog,0,2012-12-07 11:53:00
6:09 AM,60.8,60.8,100,29.86,2.5,Calm,Calm,-,N/A,,Overcast,0,2012-12-07 12:09:00
6:19 AM,60.8,60.8,100,29.86,3.0,Calm,Calm,-,N/A,,Overcast,0,2012-12-07 12:19:00
6:53 AM,61.0,61.0,100,29.87,4.0,Calm,Calm,-,N/A,,Overcast,0,2012-12-07 12:53:00
7:53 AM,62.1,62.1,100,29.87,3.0,Calm,Calm,-,N/A,,Overcast,0,2012-12-07 13:53:00
8:04 AM,62.6,62.6,100,29.88,3.0,South,4.6,-,N/A,,Overcast,170,2012-12-07 14:04:00
8:33 AM,64.4,62.6,94,29.88,2.5,South,5.8,-,N/A,,Overcast,180,2012-12-07 14:33:00
8:53 AM,64.9,64.0,97,29.88,2.5,South,8.1,-,N/A,,Overcast,190,2012-12-07 14:53:00
9:15 AM,64.4,64.4,100,29.89,3.0,South,10.4,-,N/A,,Overcast,180,2012-12-07 15:15:00
9:53 AM,69.1,63.0,81,29.89,3.0,SSW,9.2,-,N/A,,Mostly Cloudy,200,2012-12-07 15:53:00
10:23 AM,69.8,62.6,78,29.90,10.0,SSW,6.9,-,N/A,,Overcast,210,2012-12-07 16:23:00
10:53 AM,72.0,61.0,68,29.89,10.0,SSW,9.2,-,N/A,,Overcast,210,2012-12-07 16:53:00
11:53 AM,73.9,60.1,62,29.86,10.0,SSW,11.5,-,N/A,,Overcast,210,2012-12-07 17:53:00
12:53 PM,75.0,59.0,57,29.82,10.0,South,11.5,-,N/A,,Overcast,190,2012-12-07 18:53:00
1:53 PM,77.0,59.0,54,29.79,9.0,South,9.2,-,N/A,,Overcast,190,2012-12-07 19:53:00
2:53 PM,77.0,59.0,54,29.78,10.0,South,9.2,-,N/A,,Mostly Cloudy,180,2012-12-07 20:53:00
3:53 PM,77.0,59.0,54,29.77,10.0,South,9.2,-,N/A,,Mostly Cloudy,180,2012-12-07 21:53:00
4:53 PM,75.9,60.1,58,29.77,10.0,SSE,8.1,-,N/A,,Mostly Cloudy,150,2012-12-07 22:53:00
5:53 PM,68.0,59.0,73,29.79,10.0,Calm,Calm,-,N/A,,Mostly Cloudy,0,2012-12-07 23:53:00
6:53 PM,60.8,55.4,82,29.80,10.0,Calm,Calm,-,N/A,,Mostly Cloudy,0,2012-12-08 00:53:00
7:53 PM,60.8,57.2,88,29.81,10.0,Calm,Calm,-,N/A,,Mostly Cloudy,0,2012-12-08 01:53:00
8:53 PM,57.9,55.0,90,29.83,10.0,Calm,Calm,-,N/A,,Scattered Clouds,0,2012-12-08 02:53:00
9:53 PM,62.1,57.9,86,29.84,10.0,South,3.5,-,N/A,,Mostly Cloudy,190,2012-12-08 03:53:00
10:53 PM,60.1,57.0,90,29.84,10.0,South,6.9,-,N/A,,Scattered Clouds,170,2012-12-08 04:53:00
11:53 PM,57.0,54.0,89,29.84,8.0,Calm,Calm,-,N/A,,Scattered Clouds,0,2012-12-08 05:53:00